Location: Overspoor
(51.4747°N, 5.6641°E)
Time: 15:37:42
(UTC+02:00)

RS-15 - Pass Details

Date: 30 June 2022
Orbit: 1881 x 2163 km, 64.8° (Epoch: 13 August)

Event Time Altitude Azimuth Distance (km) Brightness Sun altitude
Rises 02:18:05 0° 320° (NW) 5,700 11.1 -14.9°
Reaches altitude 10° 02:21:42 10° 316° (NW) 4,693 10.5 -14.8°
Maximum altitude 02:33:12 49° 248° (WSW) 2,616 8.4 -14.5°
Enters shadow 02:42:35 16° 182° (S) 4,080 9.1 -14.1°
